Weather History for Mineral Point, WI

Change the Weather History Date:

Tuesday, January 22, 2013

  Actual Average (KLNR) Record (KLNR)
Temperature  
Mean Temperature 3 °F -  
Max Temperature 10 °F 24 °F 52 °F (2002)
Min Temperature -4 °F 9 °F -13 °F (2011)
Degree Days  
Heating Degree Days 62    
Moisture  
Dew Point -8 °F    
Average Humidity 59    
Maximum Humidity 78    
Minimum Humidity 44    
Precipitation  
Precipitation 0.00 in - - ()
Sea Level Pressure  
Sea Level Pressure 30.27 in    
Wind  
Wind Speed 7 mph (West)    
Max Wind Speed 15 mph    
Max Gust Speed 23 mph    
Visibility 10 miles    
Events      
Averages and records for this station are not official NWS values.
T = Trace of Precipitation, MM = Missing Value Source: NWS Daily Summary

Daily Weather History Graph

Daily Weather History Graph

Search for Another Location

Airport:

Trip Planner

Search our weather history database for the weather conditions in past years. The results will help you decide how hot, cold, wet, or windy it might be!

Date:

Astronomy

Jan. 22, 2013 Rise Set
Actual Time 7:24 AM CST 5:01 PM CST
Civil Twilight 6:53 AM CST 5:31 PM CST
Nautical Twilight 6:19 AM CST 6:06 PM CST
Astronomical Twilight 5:45 AM CST 6:40 PM CST
Moon 1:23 PM CST (1/22) 3:47 AM CST (1/22)
Length of Visible Light 10h 38m
Length of Day
9h 36m
Waxing Gibbous, 83% of the Moon is Illuminated
Jan 22
Waxing Gibbous
Jan 26
Full
Feb 3
Last Quarter
Feb 10
New
Feb 17
First Quarter

Hourly Weather History & Observations

Time (CST) Temp. Windchill Dew Point Humidity Pressure Visibility Wind Dir Wind Speed Gust Speed Precip Events Conditions
12:15 AM -0.4 °F -12.0 °F -9.4 °F 66% 30.24 in 10.0 mi WNW 5.8 mph - N/A   Clear
12:35 AM -0.4 °F -12.0 °F -9.4 °F 66% 30.24 in 10.0 mi WNW 5.8 mph - N/A   Clear
12:55 AM -0.4 °F -12.0 °F -9.4 °F 66% 30.24 in 10.0 mi WNW 5.8 mph - N/A   Clear
1:15 AM -0.4 °F -14.7 °F -9.4 °F 66% 30.24 in 10.0 mi WNW 8.1 mph - N/A   Clear
1:55 AM -2.2 °F -14.2 °F -9.4 °F 71% 30.25 in 10.0 mi WNW 5.8 mph - N/A   Clear
2:15 AM -2.2 °F -16.8 °F -9.4 °F 71% 30.26 in 10.0 mi WNW 8.1 mph - N/A   Clear
2:35 AM -2.2 °F -15.6 °F -9.4 °F 71% 30.26 in 10.0 mi WNW 6.9 mph - N/A   Clear
2:55 AM -2.2 °F -14.2 °F -9.4 °F 71% 30.26 in 10.0 mi WNW 5.8 mph - N/A   Clear
3:15 AM -2.2 °F -12.5 °F -9.4 °F 71% 30.26 in 10.0 mi WNW 4.6 mph - N/A   Clear
3:35 AM -2.2 °F -12.5 °F -9.4 °F 71% 30.26 in 10.0 mi WNW 4.6 mph - N/A   Clear
3:55 AM -2.2 °F -12.5 °F -11.2 °F 66% 30.26 in 10.0 mi NW 4.6 mph - N/A   Clear
4:15 AM -2.2 °F -15.6 °F -11.2 °F 66% 30.26 in 10.0 mi NW 6.9 mph - N/A   Clear
4:35 AM -4.0 °F -16.3 °F -11.2 °F 71% 30.25 in 10.0 mi NW 5.8 mph - N/A   Clear
4:55 AM -4.0 °F -12.4 °F -11.2 °F 71% 30.26 in 10.0 mi WNW 3.5 mph - N/A   Clear
5:15 AM -4.0 °F -14.6 °F -11.2 °F 71% 30.26 in 10.0 mi WNW 4.6 mph - N/A   Clear
5:35 AM -4.0 °F -12.4 °F -11.2 °F 71% 30.26 in 10.0 mi WNW 3.5 mph - N/A   Clear
5:55 AM -4.0 °F -12.4 °F -11.2 °F 71% 30.26 in 10.0 mi West 3.5 mph - N/A   Clear
6:15 AM -4.0 °F -12.4 °F -11.2 °F 71% 30.26 in 10.0 mi WNW 3.5 mph - N/A   Clear
6:35 AM -4.0 °F -14.6 °F -9.4 °F 78% 30.27 in 10.0 mi WNW 4.6 mph - N/A   Clear
6:55 AM -4.0 °F -14.6 °F -9.4 °F 78% 30.28 in 10.0 mi West 4.6 mph - N/A   Clear
7:15 AM -4.0 °F -14.6 °F -9.4 °F 78% 30.28 in 10.0 mi West 4.6 mph - N/A   Clear
7:55 AM -4.0 °F -12.4 °F -9.4 °F 78% 30.29 in 10.0 mi West 3.5 mph - N/A   Clear
8:15 AM -2.2 °F -15.6 °F -9.4 °F 71% 30.29 in 10.0 mi West 6.9 mph - N/A   Clear
8:35 AM -0.4 °F -15.7 °F -9.4 °F 66% 30.30 in 10.0 mi West 9.2 mph - N/A   Clear
8:55 AM -0.4 °F -16.7 °F -9.4 °F 66% 30.30 in 10.0 mi West 10.4 mph - N/A   Clear
9:15 AM -0.4 °F -15.7 °F -7.6 °F 72% 30.30 in 10.0 mi West 9.2 mph - N/A   Scattered Clouds
9:55 AM 1.4 °F -12.5 °F -7.6 °F 66% 30.30 in 10.0 mi WNW 8.1 mph - N/A   Scattered Clouds
10:15 AM 1.4 °F -12.5 °F -7.6 °F 66% 30.31 in 10.0 mi West 8.1 mph - N/A   Mostly Cloudy
10:35 AM 3.2 °F -11.3 °F -7.6 °F 61% 30.31 in 10.0 mi West 9.2 mph - N/A   Scattered Clouds
10:55 AM 3.2 °F -12.2 °F -5.8 °F 66% 30.32 in 10.0 mi West 10.4 mph - N/A   Clear
11:15 AM 5.0 °F -10.8 °F -5.8 °F 61% 30.32 in 10.0 mi West 11.5 mph - N/A   Scattered Clouds
11:35 AM 5.0 °F -12.3 °F -5.8 °F 61% 30.30 in 10.0 mi West 13.8 mph - N/A   Clear
11:55 AM 6.8 °F -6.9 °F -7.6 °F 52% 30.30 in 10.0 mi West 9.2 mph - N/A   Scattered Clouds
12:15 PM 8.6 °F -7.0 °F -5.8 °F 52% 30.29 in 10.0 mi West 12.7 mph 17.3 mph N/A   Clear
12:55 PM 8.6 °F -8.3 °F -5.8 °F 52% 30.28 in 10.0 mi West 15.0 mph 18.4 mph N/A   Clear
1:15 PM 8.6 °F -8.3 °F -7.6 °F 48% 30.27 in 10.0 mi West 15.0 mph 19.6 mph N/A   Clear
1:35 PM 8.6 °F -7.7 °F -7.6 °F 48% 30.26 in 10.0 mi West 13.8 mph 17.3 mph N/A   Clear
1:55 PM 10.4 °F -3.3 °F -7.6 °F 44% 30.28 in 10.0 mi West 10.4 mph 23.0 mph N/A   Clear
2:15 PM 10.4 °F -4.8 °F -7.6 °F 44% 30.27 in 10.0 mi West 12.7 mph - N/A   Clear
2:35 PM 10.4 °F -3.3 °F -7.6 °F 44% 30.27 in 10.0 mi West 10.4 mph - N/A   Clear
2:55 PM 10.4 °F -5.4 °F -7.6 °F 44% 30.28 in 10.0 mi West 13.8 mph - N/A   Clear
3:15 PM 10.4 °F -3.3 °F -7.6 °F 44% 30.28 in 10.0 mi West 10.4 mph - N/A   Clear
3:35 PM 10.4 °F -4.1 °F -7.6 °F 44% 30.27 in 10.0 mi West 11.5 mph 17.3 mph N/A   Clear
3:55 PM 8.6 °F -4.7 °F -7.6 °F 48% 30.27 in 10.0 mi WNW 9.2 mph - N/A   Clear
4:15 PM 10.4 °F -3.3 °F -7.6 °F 44% 30.27 in 10.0 mi WNW 10.4 mph - N/A   Clear
4:35 PM 8.6 °F -1.3 °F -7.6 °F 48% 30.27 in 10.0 mi WNW 5.8 mph - N/A   Clear
4:55 PM 8.6 °F 0.1 °F -5.8 °F 52% 30.27 in 10.0 mi WNW 4.6 mph - N/A   Clear
5:15 PM 8.6 °F -1.3 °F -5.8 °F 52% 30.27 in 10.0 mi WNW 5.8 mph - N/A   Clear
5:35 PM 8.6 °F 0.1 °F -5.8 °F 52% 30.26 in 10.0 mi WNW 4.6 mph - N/A   Clear
5:55 PM 8.6 °F -4.7 °F -5.8 °F 52% 30.26 in 10.0 mi West 9.2 mph - N/A   Clear
6:15 PM 8.6 °F -3.7 °F -5.8 °F 52% 30.27 in 10.0 mi West 8.1 mph - N/A   Clear
6:35 PM 8.6 °F -5.5 °F -5.8 °F 52% 30.27 in 10.0 mi West 10.4 mph - N/A   Clear
6:55 PM 8.6 °F -3.7 °F -5.8 °F 52% 30.27 in 10.0 mi West 8.1 mph - N/A   Clear
7:15 PM 8.6 °F -5.5 °F -5.8 °F 52% 30.27 in 10.0 mi West 10.4 mph - N/A   Clear
7:35 PM 8.6 °F -4.7 °F -5.8 °F 52% 30.26 in 10.0 mi West 9.2 mph - N/A   Clear
7:55 PM 8.6 °F -3.7 °F -5.8 °F 52% 30.26 in 10.0 mi WNW 8.1 mph - N/A   Mostly Cloudy
8:15 PM 8.6 °F -1.3 °F -5.8 °F 52% 30.26 in 10.0 mi WNW 5.8 mph - N/A   Overcast
8:35 PM 10.4 °F -2.4 °F -5.8 °F 48% 30.26 in 10.0 mi West 9.2 mph - N/A   Overcast
8:55 PM 10.4 °F -1.5 °F -5.8 °F 48% 30.26 in 10.0 mi West 8.1 mph - N/A   Overcast
9:15 PM 10.4 °F -3.3 °F -5.8 °F 48% 30.26 in 10.0 mi West 10.4 mph - N/A   Overcast
9:35 PM 10.4 °F -2.4 °F -5.8 °F 48% 30.26 in 10.0 mi West 9.2 mph - N/A   Overcast
9:55 PM 10.4 °F -3.3 °F -5.8 °F 48% 30.26 in 10.0 mi West 10.4 mph - N/A   Overcast
10:15 PM 10.4 °F -0.4 °F -5.8 °F 48% 30.26 in 10.0 mi West 6.9 mph - N/A   Overcast
10:55 PM 10.4 °F -0.4 °F -5.8 °F 48% 30.27 in 10.0 mi West 6.9 mph - N/A   Overcast
11:15 PM 10.4 °F -2.4 °F -5.8 °F 48% 30.26 in 10.0 mi West 9.2 mph - N/A   Overcast
11:55 PM 10.4 °F 2.2 °F -4.0 °F 52% 30.24 in 10.0 mi WSW 4.6 mph - N/A   Overcast